When you browse on this site, cookies collect data to enhance your experience and personalize the content and advertising you see.
Visit our Privacy Policy to learn more. By continuing to use the site, you agree to this use of cookies and data.
  • Em Portugal
  • Lista de países
  • Para 7 dias
  • Temperatura da água
  • Mapas de satélite
  • Mapa do tempo
  • Widgets de tempo
  • user-avatar
    Iniciar Sessão

    Previsão horária em Blyuev

    Hoje, 20 Junho, Quinta-feira

    Tempo Temperatura Precipitação Vento Pressão Humidade
    00:00 +18°C° 0 mm 2 m/s 749 mmHg 84%
    01:00 +18°C° 0 mm 1 m/s 749 mmHg 85%
    02:00 +18°C° 0 mm 1 m/s 749 mmHg 87%
    03:00 +18°C° 0 mm 1 m/s 749 mmHg 87%
    04:00 +18°C° 0 mm 1 m/s 749 mmHg 87%
    05:00 +18°C° 0 mm 1 m/s 749 mmHg 87%
    06:00 +19°C° 0 mm 2 m/s 749 mmHg 82%
    07:00 +21°C° 0 mm 2 m/s 749 mmHg 78%
    08:00 +23°C° 0 mm 2 m/s 749 mmHg 73%
    09:00 +24°C° 0 mm 2 m/s 749 mmHg 69%
    10:00 +26°C° 0 mm 3 m/s 749 mmHg 65%
    11:00 +27°C° 0 mm 3 m/s 749 mmHg 61%
    12:00 +27°C° 0.1 mm 4 m/s 748 mmHg 60%
    13:00 +28°C° 0.1 mm 4 m/s 748 mmHg 60%
    14:00 +28°C° 0.1 mm 4 m/s 748 mmHg 59%
    15:00 +28°C° 0.2 mm 4 m/s 748 mmHg 62%
    16:00 +27°C° 0.2 mm 3 m/s 747 mmHg 66%
    17:00 +27°C° 0.2 mm 3 m/s 747 mmHg 70%
    18:00 +26°C° 0.2 mm 3 m/s 747 mmHg 75%
    19:00 +24°C° 0.2 mm 3 m/s 747 mmHg 80%
    20:00 +22°C° 0.2 mm 3 m/s 747 mmHg 85%
    21:00 +21°C° 0.1 mm 3 m/s 747 mmHg 87%
    22:00 +21°C° 0.1 mm 3 m/s 747 mmHg 89%
    23:00 +20°C° 0.1 mm 3 m/s 748 mmHg 91%

    Amanhã, 21 Junho, Sexta-feira

    Tempo Temperatura Precipitação Vento Pressão Humidade
    00:00 +20°C° 0.4 mm 3 m/s 748 mmHg 92%
    01:00 +20°C° 0.4 mm 3 m/s 748 mmHg 93%
    02:00 +19°C° 0.4 mm 3 m/s 748 mmHg 93%
    03:00 +19°C° 0.3 mm 3 m/s 748 mmHg 93%
    04:00 +19°C° 0.3 mm 3 m/s 748 mmHg 93%
    05:00 +19°C° 0.3 mm 3 m/s 748 mmHg 92%
    06:00 +21°C° 0 mm 4 m/s 748 mmHg 88%
    07:00 +22°C° 0 mm 4 m/s 748 mmHg 84%
    08:00 +23°C° 0 mm 4 m/s 748 mmHg 80%
    09:00 +25°C° 0 mm 5 m/s 748 mmHg 74%
    10:00 +27°C° 0 mm 5 m/s 748 mmHg 69%
    11:00 +28°C° 0 mm 5 m/s 748 mmHg 63%
    12:00 +29°C° 0 mm 6 m/s 748 mmHg 62%
    13:00 +29°C° 0 mm 6 m/s 748 mmHg 61%
    14:00 +29°C° 0 mm 6 m/s 747 mmHg 60%
    15:00 +29°C° 0.1 mm 5 m/s 747 mmHg 63%
    16:00 +29°C° 0.1 mm 5 m/s 747 mmHg 66%
    17:00 +29°C° 0.1 mm 4 m/s 747 mmHg 69%
    18:00 +27°C° 0.2 mm 4 m/s 747 mmHg 74%
    19:00 +26°C° 0.2 mm 3 m/s 747 mmHg 79%
    20:00 +24°C° 0.2 mm 3 m/s 747 mmHg 84%
    21:00 +24°C° 0 mm 3 m/s 747 mmHg 85%
    22:00 +22°C° 0 mm 3 m/s 747 mmHg 86%
    23:00 +21°C° 0 mm 4 m/s 747 mmHg 87%

    Depois de amanhã, 22 Junho, Sábado

    Tempo Temperatura Precipitação Vento Pressão Humidade
    00:00 +21°C° 0 mm 3 m/s 747 mmHg 88%
    01:00 +20°C° 0 mm 3 m/s 747 mmHg 88%
    02:00 +20°C° 0 mm 3 m/s 747 mmHg 89%
    03:00 +20°C° 0.5 mm 3 m/s 747 mmHg 89%
    04:00 +20°C° 0.5 mm 3 m/s 747 mmHg 89%
    05:00 +20°C° 0.5 mm 3 m/s 747 mmHg 89%
    06:00 +21°C° 0.5 mm 3 m/s 748 mmHg 88%
    07:00 +22°C° 0.5 mm 3 m/s 748 mmHg 86%
    08:00 +24°C° 0.5 mm 2 m/s 748 mmHg 85%
    09:00 +25°C° 1.4 mm 3 m/s 748 mmHg 83%
    10:00 +26°C° 1.4 mm 3 m/s 748 mmHg 80%
    11:00 +27°C° 1.4 mm 3 m/s 748 mmHg 78%
    12:00 +27°C° 0.3 mm 3 m/s 748 mmHg 76%
    13:00 +27°C° 0.3 mm 2 m/s 748 mmHg 73%
    14:00 +28°C° 0.3 mm 2 m/s 748 mmHg 71%
    15:00 +27°C° 0.6 mm 2 m/s 748 mmHg 72%
    16:00 +27°C° 0.6 mm 2 m/s 748 mmHg 74%
    17:00 +27°C° 0.6 mm 2 m/s 748 mmHg 75%
    18:00 +26°C° 0.8 mm 2 m/s 748 mmHg 79%
    19:00 +25°C° 0.8 mm 2 m/s 748 mmHg 83%
    20:00 +23°C° 0.8 mm 2 m/s 749 mmHg 87%
    21:00 +23°C° 0 mm 2 m/s 749 mmHg 89%
    22:00 +21°C° 0 mm 2 m/s 749 mmHg 91%
    23:00 +20°C° 0 mm 2 m/s 749 mmHg 93%

    23 Junho, Domingo

    Tempo Temperatura Precipitação Vento Pressão Humidade
    00:00 +20°C° 0.7 mm 2 m/s 749 mmHg 94%
    01:00 +20°C° 0.7 mm 2 m/s 749 mmHg 95%
    02:00 +19°C° 0.7 mm 2 m/s 749 mmHg 96%
    03:00 +20°C° 0.4 mm 2 m/s 749 mmHg 96%
    04:00 +20°C° 0.4 mm 2 m/s 749 mmHg 96%
    05:00 +20°C° 0.4 mm 3 m/s 749 mmHg 97%
    06:00 +20°C° 0.3 mm 2 m/s 749 mmHg 96%
    07:00 +20°C° 0.3 mm 2 m/s 750 mmHg 95%
    08:00 +21°C° 0.3 mm 2 m/s 750 mmHg 94%
    09:00 +21°C° 0.6 mm 3 m/s 750 mmHg 92%
    10:00 +22°C° 0.6 mm 4 m/s 750 mmHg 90%
    11:00 +22°C° 0.6 mm 4 m/s 750 mmHg 88%
    12:00 +22°C° 0.6 mm 4 m/s 750 mmHg 88%
    13:00 +23°C° 0.6 mm 4 m/s 750 mmHg 87%
    14:00 +23°C° 0.6 mm 4 m/s 750 mmHg 87%
    15:00 +23°C° 0.3 mm 4 m/s 750 mmHg 88%
    16:00 +22°C° 0.3 mm 4 m/s 750 mmHg 88%
    17:00 +22°C° 0.3 mm 5 m/s 750 mmHg 89%
    18:00 +21°C° 0.1 mm 4 m/s 750 mmHg 90%
    19:00 +21°C° 0.1 mm 4 m/s 750 mmHg 91%
    20:00 +20°C° 0.1 mm 4 m/s 750 mmHg 93%
    21:00 +19°C° 0 mm 4 m/s 750 mmHg 94%
    22:00 +18°C° 0 mm 3 m/s 750 mmHg 95%
    23:00 +17°C° 0 mm 3 m/s 750 mmHg 96%

    24 Junho, Segunda-feira

    Tempo Temperatura Precipitação Vento Pressão Humidade
    00:00 +17°C° 0 mm 3 m/s 750 mmHg 96%
    01:00 +17°C° 0 mm 3 m/s 751 mmHg 97%
    02:00 +17°C° 0 mm 3 m/s 751 mmHg 97%
    03:00 +17°C° 0.3 mm 3 m/s 751 mmHg 96%
    04:00 +17°C° 0.3 mm 3 m/s 751 mmHg 96%
    05:00 +17°C° 0.3 mm 3 m/s 751 mmHg 95%
    06:00 +18°C° 0 mm 4 m/s 751 mmHg 92%
    07:00 +19°C° 0 mm 4 m/s 751 mmHg 90%
    08:00 +20°C° 0 mm 4 m/s 751 mmHg 87%
    09:00 +20°C° 0 mm 4 m/s 752 mmHg 84%
    10:00 +21°C° 0 mm 5 m/s 752 mmHg 82%
    11:00 +22°C° 0 mm 5 m/s 752 mmHg 79%
    12:00 +22°C° 0 mm 5 m/s 752 mmHg 78%
    13:00 +22°C° 0 mm 5 m/s 752 mmHg 78%
    14:00 +23°C° 0 mm 5 m/s 751 mmHg 77%
    15:00 +23°C° 0 mm 5 m/s 752 mmHg 76%
    16:00 +23°C° 0 mm 5 m/s 752 mmHg 75%
    17:00 +23°C° 0 mm 5 m/s 752 mmHg 74%
    18:00 +22°C° 0 mm 4 m/s 752 mmHg 78%
    19:00 +21°C° 0 mm 3 m/s 752 mmHg 81%
    20:00 +20°C° 0 mm 3 m/s 752 mmHg 85%
    21:00 +18°C° 0 mm 3 m/s 752 mmHg 84%
    22:00 +17°C° 0 mm 3 m/s 752 mmHg 84%
    23:00 +16°C° 0 mm 2 m/s 752 mmHg 84%

    25 Junho, Terça-feira

    Tempo Temperatura Precipitação Vento Pressão Humidade
    00:00 +16°C° 0 mm 3 m/s 752 mmHg 85%
    01:00 +14°C° 0 mm 3 m/s 752 mmHg 87%
    02:00 +13°C° 0 mm 3 m/s 752 mmHg 89%
    03:00 +14°C° 0 mm 3 m/s 752 mmHg 89%
    04:00 +14°C° 0 mm 3 m/s 752 mmHg 88%
    05:00 +14°C° 0 mm 3 m/s 752 mmHg 88%
    06:00 +16°C° 0 mm 3 m/s 753 mmHg 85%
    07:00 +17°C° 0 mm 4 m/s 753 mmHg 82%
    08:00 +18°C° 0 mm 4 m/s 753 mmHg 79%
    09:00 +20°C° 0 mm 4 m/s 753 mmHg 74%
    10:00 +21°C° 0 mm 4 m/s 753 mmHg 70%
    11:00 +22°C° 0 mm 5 m/s 753 mmHg 66%
    12:00 +23°C° 0 mm 5 m/s 753 mmHg 64%
    13:00 +23°C° 0 mm 5 m/s 753 mmHg 62%
    14:00 +23°C° 0 mm 6 m/s 753 mmHg 60%
    15:00 +23°C° 0 mm 5 m/s 752 mmHg 61%
    16:00 +22°C° 0 mm 5 m/s 752 mmHg 62%
    17:00 +22°C° 0 mm 5 m/s 752 mmHg 63%
    18:00 +20°C° 0 mm 4 m/s 752 mmHg 68%
    19:00 +19°C° 0 mm 4 m/s 753 mmHg 73%
    20:00 +17°C° 0 mm 3 m/s 753 mmHg 78%
    21:00 +16°C° 0 mm 3 m/s 753 mmHg 78%
    22:00 +14°C° 0 mm 3 m/s 753 mmHg 79%
    23:00 +14°C° 0 mm 3 m/s 753 mmHg 79%
    Mostrar mais